Regional Weather Roundup
Issued by NWS

Home | Current Version | Previous Version | Text Only | Print | Product List | Glossary Off
Versions: 1 2 3 4 5 6 7 8 9 10 11 12 13 14 15 16 17 18 19 20 21 22 23 24 25 26 27 28 29 30 31 32 33 34 35 36 37 38 39 40 41 42 43 44 45 46 47 48 49 50

000
ASUS45 KABQ 210010
RWRNM
WEATHER ROUNDUP FOR NEW MEXICO
NATIONAL WEATHER SERVICE ALBUQUERQUE NM
600 PM MDT SUN APR 20 2014

NOTE: "FAIR" MEANS FEW OR NO CLOUDS BELOW 12,000 FEET AGL WITH NO
       SIGNIFICANT WEATHER OR OBSTRUCTIONS TO VISION.

      THIS PRODUCT IS RELEASED AS TWO VERSIONS.  ONE VERSION NEAR
      THE TOP OF THE HOUR CONTAINING PRELIMINARY DATA FROM ALBUQUERQUE
      AND OTHER STATIONS.  A FINAL VERSION WITH ADDITIONAL DATA IS
      ISSUED ABOUT 10 MINUTES AFTER THE HOUR.

NMZ501-503-504-510>518-210100-
NORTHWEST PLATEAU/NORTHCENTRAL MOUNTAINS

CITY           SKY/WX    TMP DP  RH WIND       PRES   REMARKS
FARMINGTON     SUNNY     73  28  18 W18G31    30.03S
6HR MIN TEMP:  68; 6HR MAX TEMP:  76;

LOS ALAMOS     LGT RAIN  59  37  43 N6G16     30.15R
SANTA FE       PTSUNNY   70  32  24 MISG      30.07R
6HR MIN TEMP:  61; 6HR MAX TEMP:  73; 6HR PCP: TRACE;

TAOS           MOSUNNY   61  36  39 SE7       30.14S
ANGEL FIRE     FAIR      52  36  55 CALM      30.19R

$$
NMZ402-403-502-505>509-210100-
WESTCENTRAL MOUNTAINS/SOUTHWEST MOUNTAINS

CITY           SKY/WX    TMP DP  RH WIND       PRES   REMARKS
GALLUP         CLOUDY    68  28  22 CALM      30.14R
6HR MIN TEMP:  60; 6HR MAX TEMP:  71; 6HR PCP: TRACE;

GRANTS         PTSUNNY   68  28  22 NW10G18   30.15S
SILVER CITY    PTSUNNY   66  36  32 N31       30.15R

$$
NMZ407-409-411-412-210100-
SOUTHERN DESERTS

CITY           SKY/WX    TMP DP  RH WIND       PRES   REMARKS
LORDSBURG      FAIR      75  34  22 W3G18     30.08S
DEMING         SUNNY     76  32  20 SW15      30.07S
6HR MIN TEMP:  67; 6HR MAX TEMP:  77;

LAS CRUCES     SUNNY     76  30  18 W6        30.08S
HOLLOMAN AFB   MOSUNNY   76  38  25 SW7       30.04S
ALAMOGORDO     MOSUNNY   73  37  27 CALM      30.06S
T OR C         CLOUDY    71  39  31 SW13      30.07R
6HR MIN TEMP:  66; 6HR MAX TEMP:  72;


$$
NMZ519>523-210100-
CENTRAL VALLEYS/CENTRAL HIGHLANDS

CITY           SKY/WX    TMP DP  RH WIND       PRES   REMARKS
ALBUQUERQUE    MOSUNNY   76  27  16 NW14      30.04S
6HR MIN TEMP:  63; 6HR MAX TEMP:  77;

DOUBLE EAGLE   PTSUNNY   73  27  17 W15G21    30.06F
MORIARTY ARPT  FAIR      70  28  21 W18G25    30.08S
6HR MIN TEMP:  64; 6HR MAX TEMP:  71;

CLINES CORNERS CLOUDY    57  39  51 E13       30.11R
6HR MIN TEMP:  57; 6HR MAX TEMP:  68;

BELEN          FAIR      74  34  23 SW13      30.04S
6HR MIN TEMP:  64; 6HR MAX TEMP:  76;

SOCORRO        PTSUNNY   73  37  26 SE10      30.05S
6HR MIN TEMP:  66; 6HR MAX TEMP:  74; 6HR PCP:  0.01;


$$
NMZ524>526-539-540-210100-
SOUTHCENTRAL MOUNTAINS

CITY           SKY/WX    TMP DP  RH WIND       PRES   REMARKS
RUIDOSO        MOSUNNY   61  36  39 W10       30.18S

$$
NMZ527>531-210100-
NORTHEAST HIGHLANDS/NORTHEAST PLAINS

CITY           SKY/WX    TMP DP  RH WIND       PRES   REMARKS
LAS VEGAS      PTSUNNY   56  42  59 NE5       30.13R
6HR MIN TEMP:  49; 6HR MAX TEMP:  58; 6HR PCP:  0.06;

RATON          PTSUNNY   60  41  49 N15       30.07S
6HR MIN TEMP:  47; 6HR MAX TEMP:  64; 6HR PCP:  0.09;

CLAYTON        MOSUNNY   67  39  35 N14       30.00R
6HR MIN TEMP:  64; 6HR MAX TEMP:  70;


$$
NMZ532>537-210100-
EASTCENTRAL PLAINS

CITY           SKY/WX    TMP DP  RH WIND       PRES   REMARKS
TUCUMCARI      PTSUNNY   71  44  37 W14       29.96S
6HR MIN TEMP:  63; 6HR MAX TEMP:  74; 6HR PCP: TRACE;

CANNON AFB     MOSUNNY   69  47  46 W6        30.00S
6HR MIN TEMP:  60; 6HR MAX TEMP:  75; 6HR PCP:  0.02;

CLOVIS AIRPORT   N/A     63  52  67 S6        30.02F

$$
NMZ028-029-538-210100-
SOUTHEAST PLAINS

CITY           SKY/WX    TMP DP  RH WIND       PRES   REMARKS
ROSWELL        CLOUDY    78  35  21 NW7       29.97R
6HR MIN TEMP:  73; 6HR MAX TEMP:  81; 6HR PCP: TRACE;

ARTESIA        MOSUNNY   77  43  29 SW15      29.99R
CARLSBAD       MOSUNNY   81  38  21 W9G20     29.97S
6HR MIN TEMP:  71; 6HR MAX TEMP:  82;

HOBBS          SUNNY     77  41  27 W14G24    30.00S


$$



USA.gov is the U.S. government's official web portal to all federal, state and local government web resources and services.